Location: Newark
(50.9000°N, 14.8333°E)
Time: 19:09:10
(UTC+00:00)

N. Korean satellite - Pass Details

Date: 05 November 2020
Orbit: 453 x 503 km, 97.2° (Epoch: 04 December)

Event Time Altitude Azimuth Distance (km) Brightness Sun altitude
Rises 04:33:37 0° 15° (NNE) 2,481 10.3 -13.9°
Reaches altitude 10° 04:35:41 10° 17° (NNE) 1,603 9.3 -13.5°
Maximum altitude 04:39:06 69° 102° (ESE) 493 6.8 -13.0°
Drops below altitude 10° 04:42:31 10° 186° (S) 1,599 9.2 -12.5°
Sets 04:44:33 0° 189° (S) 2,474 10.2 -12.2°
